Wetterdaten: Samstag, 18.07.2015
Datum Zeit Temp. A. Feuchte A. Luftdruck Regen Wind Richtung Richtung Sonnenschein ET UV Solar Taupunkt Windchill Windben Empfang
18.07.2015 00:00 24,3 C 46 % 1015,3 hPa 0,0 l/m 0,4 km/h (0 Bft) N-NO 32 0 min 0,000 mm 0,0 UV-I 0 W/m 11,9 C 24,3 C 4,0 km/h (1 Bft) 0,00 %
18.07.2015 00:05 24,3 C 46 % 1015,4 hPa 0,0 l/m 0,0 km/h (0 Bft) NO 40 0 min 0,000 mm 0,0 UV-I 0 W/m 11,9 C 24,3 C 0,0 km/h (0 Bft) 0,00 %
18.07.2015 00:10 24,3 C 46 % 1015,4 hPa 0,0 l/m 0,0 km/h (0 Bft) O-NO 73 0 min 0,000 mm 0,0 UV-I 0 W/m 11,9 C 24,3 C 0,0 km/h (0 Bft) 0,00 %
18.07.2015 00:15 24,2 C 47 % 1015,0 hPa 0,0 l/m 0,0 km/h (0 Bft) N-NO 30 0 min 0,000 mm 0,0 UV-I 0 W/m 12,2 C 24,2 C 0,0 km/h (0 Bft) 0,00 %
18.07.2015 00:20 24,1 C 47 % 1015,0 hPa 0,0 l/m 0,0 km/h (0 Bft) NO 46 0 min 0,000 mm 0,0 UV-I 0 W/m 12,1 C 24,1 C 0,0 km/h (0 Bft) 0,00 %
18.07.2015 00:25 24,0 C 48 % 1015,3 hPa 0,0 l/m 0,0 km/h (0 Bft) NO 56 0 min 0,000 mm 0,0 UV-I 0 W/m 12,3 C 24,0 C 0,0 km/h (0 Bft) 0,00 %
18.07.2015 00:30 23,9 C 49 % 1015,3 hPa 0,0 l/m 0,0 km/h (0 Bft) NO 46 0 min 0,000 mm 0,0 UV-I 0 W/m 12,5 C 23,9 C 0,0 km/h (0 Bft) 0,00 %
18.07.2015 00:35 23,8 C 49 % 1015,4 hPa 0,0 l/m 0,0 km/h (0 Bft) N-NO 26 0 min 0,000 mm 0,0 UV-I 0 W/m 12,4 C 23,8 C 0,0 km/h (0 Bft) 0,00 %
18.07.2015 00:40 23,6 C 50 % 1015,5 hPa 0,0 l/m 0,0 km/h (0 Bft) NO 47 0 min 0,000 mm 0,0 UV-I 0 W/m 12,6 C 23,6 C 0,0 km/h (0 Bft) 0,00 %
18.07.2015 00:45 23,5 C 50 % 1015,5 hPa 0,0 l/m 0,0 km/h (0 Bft) N-NW 336 0 min 0,000 mm 0,0 UV-I 0 W/m 12,5 C 23,5 C 0,0 km/h (0 Bft) 0,00 %
18.07.2015 00:50 23,4 C 50 % 1015,6 hPa 0,0 l/m 0,0 km/h (0 Bft) NO 44 0 min 0,000 mm 0,0 UV-I 0 W/m 12,4 C 23,4 C 0,0 km/h (0 Bft) 0,00 %
18.07.2015 00:55 23,3 C 51 % 1015,6 hPa 0,0 l/m 0,0 km/h (0 Bft) NO 41 0 min 0,000 mm 0,0 UV-I 0 W/m 12,6 C 23,3 C 0,0 km/h (0 Bft) 0,00 %
18.07.2015 01:00 23,2 C 51 % 1015,5 hPa 0,0 l/m 0,0 km/h (0 Bft) NO 46 0 min 0,000 mm 0,0 UV-I 0 W/m 12,5 C 23,2 C 0,0 km/h (0 Bft) 0,00 %
18.07.2015 01:05 23,2 C 53 % 1015,3 hPa 0,0 l/m 0,0 km/h (0 Bft) N-NO 27 0 min 0,000 mm 0,0 UV-I 0 W/m 13,1 C 23,2 C 0,0 km/h (0 Bft) 0,00 %
18.07.2015 01:10 23,1 C 53 % 1015,4 hPa 0,0 l/m 0,0 km/h (0 Bft) O-NO 60 0 min 0,000 mm 0,0 UV-I 0 W/m 13,0 C 23,1 C 0,0 km/h (0 Bft) 0,00 %
18.07.2015 01:15 22,9 C 55 % 1015,4 hPa 0,0 l/m 0,0 km/h (0 Bft) O 86 0 min 0,000 mm 0,0 UV-I 0 W/m 13,4 C 22,9 C 0,0 km/h (0 Bft) 0,00 %
18.07.2015 01:20 22,8 C 54 % 1015,5 hPa 0,0 l/m 0,0 km/h (0 Bft) NO 39 0 min 0,000 mm 0,0 UV-I 0 W/m 13,0 C 22,8 C 0,0 km/h (0 Bft) 0,00 %
18.07.2015 01:25 22,7 C 54 % 1015,8 hPa 0,0 l/m 0,0 km/h (0 Bft) NO 34 0 min 0,000 mm 0,0 UV-I 0 W/m 12,9 C 22,7 C 0,0 km/h (0 Bft) 0,00 %
18.07.2015 01:30 22,7 C 53 % 1015,7 hPa 0,0 l/m 0,0 km/h (0 Bft) NO 43 0 min 0,000 mm 0,0 UV-I 0 W/m 12,6 C 22,7 C 0,0 km/h (0 Bft) 0,00 %
18.07.2015 01:35 22,7 C 53 % 1015,5 hPa 0,0 l/m 0,0 km/h (0 Bft) O-NO 65 0 min 0,000 mm 0,0 UV-I 0 W/m 12,6 C 22,7 C 0,0 km/h (0 Bft) 0,00 %
18.07.2015 01:40 22,8 C 53 % 1015,4 hPa 0,0 l/m 0,0 km/h (0 Bft) O-NO 61 0 min 0,000 mm 0,0 UV-I 0 W/m 12,7 C 22,8 C 0,0 km/h (0 Bft) 0,00 %
18.07.2015 01:45 22,7 C 53 % 1015,3 hPa 0,0 l/m 0,4 km/h (0 Bft) O-SO 104 0 min 0,000 mm 0,0 UV-I 0 W/m 12,6 C 22,7 C 4,0 km/h (1 Bft) 0,00 %
18.07.2015 01:50 22,7 C 53 % 1015,1 hPa 0,0 l/m 0,0 km/h (0 Bft) NO 39 0 min 0,000 mm 0,0 UV-I 0 W/m 12,6 C 22,7 C 0,0 km/h (0 Bft) 0,00 %
18.07.2015 01:55 22,6 C 53 % 1015,0 hPa 0,0 l/m 1,8 km/h (1 Bft) SO 131 0 min 0,000 mm 0,0 UV-I 0 W/m 12,5 C 22,6 C 4,0 km/h (1 Bft) 0,00 %
18.07.2015 02:00 22,6 C 53 % 1014,9 hPa 0,0 l/m 0,7 km/h (0 Bft) O 85 0 min 0,000 mm 0,0 UV-I 0 W/m 12,5 C 22,6 C 4,0 km/h (1 Bft) 0,00 %
18.07.2015 02:05 22,6 C 54 % 1014,9 hPa 0,0 l/m 0,0 km/h (0 Bft) NO 40 0 min 0,000 mm 0,0 UV-I 0 W/m 12,8 C 22,6 C 0,0 km/h (0 Bft) 0,00 %
18.07.2015 02:10 22,5 C 55 % 1015,4 hPa 0,0 l/m 0,7 km/h (0 Bft) W-NW 289 0 min 0,000 mm 0,0 UV-I 0 W/m 13,0 C 22,5 C 4,0 km/h (1 Bft) 0,00 %
18.07.2015 02:15 22,2 C 56 % 1016,0 hPa 0,0 l/m 0,4 km/h (0 Bft) N 354 0 min 0,000 mm 0,0 UV-I 0 W/m 13,0 C 22,2 C 4,0 km/h (1 Bft) 0,00 %
18.07.2015 02:20 22,0 C 57 % 1015,9 hPa 0,0 l/m 0,0 km/h (0 Bft) NO 36 0 min 0,000 mm 0,0 UV-I 0 W/m 13,1 C 22,0 C 0,0 km/h (0 Bft) 0,00 %
18.07.2015 02:25 21,9 C 58 % 1016,2 hPa 0,0 l/m 0,0 km/h (0 Bft) NO 46 0 min 0,000 mm 0,0 UV-I 0 W/m 13,3 C 21,9 C 0,0 km/h (0 Bft) 0,00 %
18.07.2015 02:30 21,8 C 59 % 1015,7 hPa 0,0 l/m 0,0 km/h (0 Bft) NO 50 0 min 0,000 mm 0,0 UV-I 0 W/m 13,4 C 21,8 C 0,0 km/h (0 Bft) 0,00 %
18.07.2015 02:35 21,7 C 58 % 1016,0 hPa 0,0 l/m 0,0 km/h (0 Bft) NO 44 0 min 0,000 mm 0,0 UV-I 0 W/m 13,1 C 21,7 C 0,0 km/h (0 Bft) 0,00 %
18.07.2015 02:40 21,7 C 59 % 1015,6 hPa 0,0 l/m 0,0 km/h (0 Bft) O-NO 61 0 min 0,000 mm 0,0 UV-I 0 W/m 13,3 C 21,7 C 0,0 km/h (0 Bft) 0,00 %
18.07.2015 02:45 21,6 C 58 % 1015,7 hPa 0,0 l/m 0,0 km/h (0 Bft) O-NO 62 0 min 0,000 mm 0,0 UV-I 0 W/m 13,0 C 21,6 C 0,0 km/h (0 Bft) 0,00 %
18.07.2015 02:50 21,5 C 59 % 1015,6 hPa 0,0 l/m 0,0 km/h (0 Bft) O 98 0 min 0,000 mm 0,0 UV-I 0 W/m 13,1 C 21,5 C 0,0 km/h (0 Bft) 0,00 %
18.07.2015 02:55 21,4 C 59 % 1015,6 hPa 0,0 l/m 0,0 km/h (0 Bft) O-NO 59 0 min 0,000 mm 0,0 UV-I 0 W/m 13,0 C 21,4 C 0,0 km/h (0 Bft) 0,00 %
18.07.2015 03:00 21,4 C 59 % 1015,7 hPa 0,0 l/m 0,0 km/h (0 Bft) NO 36 0 min 0,000 mm 0,0 UV-I 0 W/m 13,0 C 21,4 C 0,0 km/h (0 Bft) 0,00 %
18.07.2015 03:05 21,3 C 60 % 1015,7 hPa 0,0 l/m 0,0 km/h (0 Bft) NO 50 0 min 0,000 mm 0,0 UV-I 0 W/m 13,2 C 21,3 C 0,0 km/h (0 Bft) 0,00 %
18.07.2015 03:10 21,3 C 60 % 1015,8 hPa 0,0 l/m 0,0 km/h (0 Bft) N-NO 29 0 min 0,000 mm 0,0 UV-I 0 W/m 13,2 C 21,3 C 0,0 km/h (0 Bft) 0,00 %
18.07.2015 03:15 21,2 C 61 % 1015,5 hPa 0,0 l/m 0,0 km/h (0 Bft) N-NO 21 0 min 0,000 mm 0,0 UV-I 0 W/m 13,4 C 21,2 C 0,0 km/h (0 Bft) 0,00 %
18.07.2015 03:20 21,1 C 62 % 1015,8 hPa 0,0 l/m 0,0 km/h (0 Bft) NO 34 0 min 0,000 mm 0,0 UV-I 0 W/m 13,5 C 21,1 C 0,0 km/h (0 Bft) 0,00 %
18.07.2015 03:25 21,0 C 63 % 1015,7 hPa 0,0 l/m 0,0 km/h (0 Bft) NO 48 0 min 0,000 mm 0,0 UV-I 0 W/m 13,7 C 21,0 C 0,0 km/h (0 Bft) 0,00 %
18.07.2015 03:30 20,8 C 63 % 1015,7 hPa 0,0 l/m 0,0 km/h (0 Bft) NO 40 0 min 0,000 mm 0,0 UV-I 0 W/m 13,5 C 20,8 C 0,0 km/h (0 Bft) 0,00 %
18.07.2015 03:35 20,8 C 63 % 1015,7 hPa 0,0 l/m 0,0 km/h (0 Bft) NO 50 0 min 0,000 mm 0,0 UV-I 0 W/m 13,5 C 20,8 C 0,0 km/h (0 Bft) 0,00 %
18.07.2015 03:40 20,7 C 63 % 1015,7 hPa 0,0 l/m 0,0 km/h (0 Bft) NO 43 0 min 0,000 mm 0,0 UV-I 0 W/m 13,4 C 20,7 C 0,0 km/h (0 Bft) 0,00 %
18.07.2015 03:45 20,6 C 64 % 1015,6 hPa 0,0 l/m 0,0 km/h (0 Bft) NO 45 0 min 0,000 mm 0,0 UV-I 0 W/m 13,5 C 20,6 C 0,0 km/h (0 Bft) 0,00 %
18.07.2015 03:50 20,6 C 64 % 1015,8 hPa 0,0 l/m 0,0 km/h (0 Bft) NW 313 0 min 0,000 mm 0,0 UV-I 0 W/m 13,5 C 20,6 C 0,0 km/h (0 Bft) 0,00 %
18.07.2015 03:55 20,6 C 63 % 1015,8 hPa 0,0 l/m 0,0 km/h (0 Bft) NO 44 0 min 0,000 mm 0,0 UV-I 0 W/m 13,3 C 20,6 C 0,0 km/h (0 Bft) 0,00 %
18.07.2015 04:00 20,5 C 64 % 1015,5 hPa 0,0 l/m 0,4 km/h (0 Bft) W 266 0 min 0,000 mm 0,0 UV-I 0 W/m 13,5 C 20,5 C 4,0 km/h (1 Bft) 0,00 %
18.07.2015 04:05 20,5 C 64 % 1015,5 hPa 0,0 l/m 0,0 km/h (0 Bft) N-NO 19 0 min 0,000 mm 0,0 UV-I 0 W/m 13,5 C 20,5 C 0,0 km/h (0 Bft) 0,00 %
18.07.2015 04:10 20,4 C 65 % 1015,5 hPa 0,0 l/m 0,4 km/h (0 Bft) W-NW 301 0 min 0,000 mm 0,0 UV-I 0 W/m 13,6 C 20,4 C 4,0 km/h (1 Bft) 0,00 %
18.07.2015 04:15 20,4 C 65 % 1015,7 hPa 0,0 l/m 0,0 km/h (0 Bft) N-NO 32 0 min 0,000 mm 0,0 UV-I 0 W/m 13,6 C 20,4 C 0,0 km/h (0 Bft) 0,00 %
18.07.2015 04:20 20,3 C 65 % 1015,7 hPa 0,0 l/m 0,0 km/h (0 Bft) N-NO 31 0 min 0,000 mm 0,0 UV-I 0 W/m 13,5 C 20,3 C 0,0 km/h (0 Bft) 0,00 %
18.07.2015 04:25 20,2 C 65 % 1015,6 hPa 0,0 l/m 0,0 km/h (0 Bft) N 355 0 min 0,000 mm 0,0 UV-I 0 W/m 13,4 C 20,2 C 0,0 km/h (0 Bft) 0,00 %
18.07.2015 04:30 20,1 C 66 % 1015,8 hPa 0,0 l/m 0,0 km/h (0 Bft) N-NO 22 0 min 0,000 mm 0,0 UV-I 0 W/m 13,5 C 20,1 C 0,0 km/h (0 Bft) 0,00 %
18.07.2015 04:35 20,0 C 67 % 1016,1 hPa 0,0 l/m 0,0 km/h (0 Bft) NO 34 0 min 0,000 mm 0,0 UV-I 0 W/m 13,7 C 20,0 C 0,0 km/h (0 Bft) 0,00 %
18.07.2015 04:40 19,9 C 69 % 1016,1 hPa 0,0 l/m 0,0 km/h (0 Bft) NO 35 0 min 0,000 mm 0,0 UV-I 0 W/m 14,0 C 19,9 C 0,0 km/h (0 Bft) 0,00 %
18.07.2015 04:45 19,8 C 69 % 1016,1 hPa 0,0 l/m 0,0 km/h (0 Bft) N-NW 328 0 min 0,000 mm 0,0 UV-I 0 W/m 13,9 C 19,8 C 0,0 km/h (0 Bft) 0,00 %
18.07.2015 04:50 19,7 C 70 % 1016,1 hPa 0,0 l/m 0,0 km/h (0 Bft) NO 48 0 min 0,000 mm 0,0 UV-I 0 W/m 14,1 C 19,7 C 0,0 km/h (0 Bft) 0,00 %
18.07.2015 04:55 19,5 C 70 % 1016,1 hPa 0,0 l/m 0,0 km/h (0 Bft) NO 36 0 min 0,000 mm 0,0 UV-I 0 W/m 13,9 C 19,5 C 0,0 km/h (0 Bft) 0,00 %
18.07.2015 05:00 19,4 C 70 % 1016,0 hPa 0,0 l/m 0,4 km/h (0 Bft) NW 305 0 min 0,000 mm 0,0 UV-I 0 W/m 13,8 C 19,4 C 4,0 km/h (1 Bft) 0,00 %
18.07.2015 05:05 19,3 C 70 % 1016,2 hPa 0,0 l/m 0,0 km/h (0 Bft) O-NO 59 0 min 0,000 mm 0,0 UV-I 0 W/m 13,7 C 19,3 C 0,0 km/h (0 Bft) 0,00 %
18.07.2015 05:10 19,2 C 71 % 1016,3 hPa 0,0 l/m 0,0 km/h (0 Bft) N-NO 26 0 min 0,000 mm 0,0 UV-I 0 W/m 13,8 C 19,2 C 0,0 km/h (0 Bft) 0,00 %
18.07.2015 05:15 19,1 C 71 % 1016,3 hPa 0,0 l/m 0,0 km/h (0 Bft) NO 41 0 min 0,000 mm 0,0 UV-I 0 W/m 13,7 C 19,1 C 0,0 km/h (0 Bft) 0,00 %
18.07.2015 05:20 19,1 C 71 % 1016,1 hPa 0,0 l/m 0,0 km/h (0 Bft) NO 44 0 min 0,000 mm 0,0 UV-I 0 W/m 13,7 C 19,1 C 0,0 km/h (0 Bft) 0,00 %
18.07.2015 05:25 19,0 C 73 % 1016,1 hPa 0,0 l/m 0,0 km/h (0 Bft) NO 34 0 min 0,000 mm 0,0 UV-I 0 W/m 14,0 C 19,0 C 0,0 km/h (0 Bft) 0,00 %
18.07.2015 05:30 18,9 C 73 % 1016,1 hPa 0,0 l/m 0,0 km/h (0 Bft) N-NO 23 0 min 0,000 mm 0,0 UV-I 0 W/m 13,9 C 18,9 C 0,0 km/h (0 Bft) 0,00 %
18.07.2015 05:35 18,8 C 74 % 1016,2 hPa 0,0 l/m 0,0 km/h (0 Bft) N 350 0 min 0,000 mm 0,0 UV-I 1 W/m 14,1 C 18,8 C 0,0 km/h (0 Bft) 0,00 %
18.07.2015 05:40 18,7 C 74 % 1016,1 hPa 0,0 l/m 0,0 km/h (0 Bft) N 356 0 min 0,000 mm 0,0 UV-I 4 W/m 14,0 C 18,7 C 0,0 km/h (0 Bft) 0,00 %
18.07.2015 05:45 18,6 C 75 % 1016,3 hPa 0,0 l/m 0,0 km/h (0 Bft) O-NO 61 0 min 0,000 mm 0,0 UV-I 5 W/m 14,1 C 18,6 C 0,0 km/h (0 Bft) 0,00 %
18.07.2015 05:50 18,4 C 75 % 1016,1 hPa 0,0 l/m 0,0 km/h (0 Bft) NO 49 0 min 0,000 mm 0,0 UV-I 12 W/m 13,9 C 18,4 C 0,0 km/h (0 Bft) 0,00 %
18.07.2015 05:55 18,4 C 75 % 1016,1 hPa 0,0 l/m 0,0 km/h (0 Bft) NO 44 0 min 0,000 mm 0,0 UV-I 21 W/m 13,9 C 18,4 C 0,0 km/h (0 Bft) 0,00 %
18.07.2015 06:00 18,3 C 75 % 1016,4 hPa 0,0 l/m 0,0 km/h (0 Bft) NO 44 0 min 0,000 mm 0,0 UV-I 27 W/m 13,8 C 18,3 C 0,0 km/h (0 Bft) 0,00 %
18.07.2015 06:05 18,3 C 75 % 1016,3 hPa 0,0 l/m 0,0 km/h (0 Bft) NO 36 0 min 0,000 mm 0,0 UV-I 35 W/m 13,8 C 18,3 C 0,0 km/h (0 Bft) 0,00 %
18.07.2015 06:10 18,4 C 75 % 1016,6 hPa 0,0 l/m 0,0 km/h (0 Bft) N 356 0 min 0,000 mm 0,0 UV-I 44 W/m 13,9 C 18,4 C 0,0 km/h (0 Bft) 0,00 %
18.07.2015 06:15 18,5 C 74 % 1016,6 hPa 0,0 l/m 0,0 km/h (0 Bft) NO 50 0 min 0,000 mm 0,0 UV-I 51 W/m 13,8 C 18,5 C 0,0 km/h (0 Bft) 0,00 %
18.07.2015 06:20 18,5 C 74 % 1016,5 hPa 0,0 l/m 0,0 km/h (0 Bft) N-NO 28 0 min 0,000 mm 0,0 UV-I 58 W/m 13,8 C 18,5 C 0,0 km/h (0 Bft) 0,00 %
18.07.2015 06:25 18,6 C 74 % 1016,3 hPa 0,0 l/m 0,0 km/h (0 Bft) NO 36 0 min 0,000 mm 0,0 UV-I 63 W/m 13,9 C 18,6 C 0,0 km/h (0 Bft) 0,00 %
18.07.2015 06:30 18,7 C 75 % 1016,6 hPa 0,0 l/m 0,0 km/h (0 Bft) N-NO 20 0 min 0,000 mm 0,0 UV-I 65 W/m 14,2 C 18,7 C 0,0 km/h (0 Bft) 0,00 %
18.07.2015 06:35 18,7 C 75 % 1016,4 hPa 0,0 l/m 0,0 km/h (0 Bft) N 355 0 min 0,000 mm 0,0 UV-I 65 W/m 14,2 C 18,7 C 0,0 km/h (0 Bft) 0,00 %
18.07.2015 06:40 18,8 C 75 % 1016,2 hPa 0,0 l/m 0,0 km/h (0 Bft) NO 39 0 min 0,000 mm 0,0 UV-I 70 W/m 14,3 C 18,8 C 0,0 km/h (0 Bft) 0,00 %
18.07.2015 06:45 18,8 C 75 % 1016,3 hPa 0,0 l/m 0,0 km/h (0 Bft) NO 43 0 min 0,000 mm 1,0 UV-I 83 W/m 14,3 C 18,8 C 0,0 km/h (0 Bft) 0,00 %
18.07.2015 06:50 18,8 C 75 % 1016,2 hPa 0,0 l/m 0,0 km/h (0 Bft) NO 35 0 min 0,000 mm 1,0 UV-I 99 W/m 14,3 C 18,8 C 0,0 km/h (0 Bft) 0,00 %
18.07.2015 06:55 18,9 C 75 % 1016,4 hPa 0,0 l/m 0,0 km/h (0 Bft) NO 45 5 min 0,000 mm 1,0 UV-I 137 W/m 14,4 C 18,9 C 0,0 km/h (0 Bft) 0,00 %
18.07.2015 07:00 19,1 C 74 % 1016,0 hPa 0,0 l/m 0,0 km/h (0 Bft) NO 45 5 min 0,000 mm 1,0 UV-I 224 W/m 14,4 C 19,1 C 0,0 km/h (0 Bft) 0,00 %
18.07.2015 07:05 19,5 C 72 % 1015,6 hPa 0,0 l/m 0,0 km/h (0 Bft) NO 38 5 min 0,000 mm 1,0 UV-I 238 W/m 14,3 C 19,5 C 0,0 km/h (0 Bft) 0,00 %
18.07.2015 07:10 20,1 C 69 % 1015,4 hPa 0,0 l/m 0,0 km/h (0 Bft) NO 37 5 min 0,000 mm 1,0 UV-I 243 W/m 14,2 C 20,1 C 0,0 km/h (0 Bft) 0,00 %
18.07.2015 07:15 20,8 C 65 % 1015,5 hPa 0,0 l/m 0,0 km/h (0 Bft) NO 50 5 min 0,000 mm 1,0 UV-I 194 W/m 14,0 C 20,8 C 0,0 km/h (0 Bft) 0,00 %
18.07.2015 07:20 21,2 C 65 % 1015,2 hPa 0,0 l/m 0,0 km/h (0 Bft) NO 41 5 min 0,000 mm 1,0 UV-I 260 W/m 14,4 C 21,2 C 0,0 km/h (0 Bft) 0,00 %
18.07.2015 07:25 21,6 C 64 % 1015,2 hPa 0,0 l/m 0,0 km/h (0 Bft) NO 47 5 min 0,000 mm 1,0 UV-I 285 W/m 14,5 C 21,6 C 0,0 km/h (0 Bft) 0,00 %
18.07.2015 07:30 22,1 C 61 % 1015,1 hPa 0,0 l/m 0,0 km/h (0 Bft) N-NO 33 5 min 0,000 mm 1,0 UV-I 319 W/m 14,2 C 22,1 C 0,0 km/h (0 Bft) 0,00 %
18.07.2015 07:35 22,9 C 59 % 1015,3 hPa 0,0 l/m 0,0 km/h (0 Bft) NO 34 5 min 0,000 mm 1,0 UV-I 329 W/m 14,5 C 22,9 C 0,0 km/h (0 Bft) 0,00 %
18.07.2015 07:40 23,8 C 56 % 1015,3 hPa 0,0 l/m 0,0 km/h (0 Bft) N 7 5 min 0,000 mm 1,0 UV-I 299 W/m 14,5 C 23,8 C 0,0 km/h (0 Bft) 0,00 %
18.07.2015 07:45 24,4 C 54 % 1015,3 hPa 0,0 l/m 0,0 km/h (0 Bft) NO 36 0 min 0,000 mm 1,0 UV-I 196 W/m 14,5 C 24,4 C 0,0 km/h (0 Bft) 0,00 %
18.07.2015 07:50 24,6 C 55 % 1015,4 hPa 0,0 l/m 0,0 km/h (0 Bft) NO 44 0 min 0,000 mm 1,0 UV-I 157 W/m 14,9 C 24,6 C 0,0 km/h (0 Bft) 0,00 %
18.07.2015 07:55 24,4 C 55 % 1015,4 hPa 0,0 l/m 0,0 km/h (0 Bft) NO 51 5 min 0,000 mm 1,0 UV-I 331 W/m 14,8 C 24,4 C 0,0 km/h (0 Bft) 0,00 %
18.07.2015 08:00 24,0 C 58 % 1014,9 hPa 0,0 l/m 0,0 km/h (0 Bft) NO 36 5 min 0,000 mm 1,0 UV-I 368 W/m 15,2 C 24,0 C 0,0 km/h (0 Bft) 0,00 %
18.07.2015 08:05 23,8 C 57 % 1015,0 hPa 0,0 l/m 0,0 km/h (0 Bft) N 5 5 min 0,000 mm 1,0 UV-I 382 W/m 14,8 C 23,8 C 0,0 km/h (0 Bft) 0,00 %
18.07.2015 08:10 23,9 C 55 % 1015,0 hPa 0,0 l/m 0,0 km/h (0 Bft) N-NO 30 5 min 0,000 mm 1,0 UV-I 395 W/m 14,3 C 23,9 C 0,0 km/h (0 Bft) 0,00 %
18.07.2015 08:15 24,2 C 55 % 1014,9 hPa 0,0 l/m 0,0 km/h (0 Bft) NO 42 5 min 0,000 mm 1,0 UV-I 392 W/m 14,6 C 24,2 C 0,0 km/h (0 Bft) 0,00 %
18.07.2015 08:20 24,7 C 52 % 1015,0 hPa 0,0 l/m 0,0 km/h (0 Bft) N-NO 18 5 min 0,000 mm 1,0 UV-I 430 W/m 14,2 C 24,7 C 0,0 km/h (0 Bft) 0,00 %
18.07.2015 08:25 25,1 C 52 % 1015,2 hPa 0,0 l/m 0,4 km/h (0 Bft) N-NW 348 5 min 0,000 mm 1,0 UV-I 411 W/m 14,5 C 25,1 C 4,0 km/h (1 Bft) 0,00 %
18.07.2015 08:30 25,4 C 50 % 1015,1 hPa 0,0 l/m 1,4 km/h (1 Bft) SW 232 5 min 0,000 mm 1,0 UV-I 434 W/m 14,2 C 25,4 C 4,0 km/h (1 Bft) 0,00 %
18.07.2015 08:35 25,6 C 50 % 1015,9 hPa 0,0 l/m 0,7 km/h (0 Bft) W-NW 287 5 min 0,000 mm 1,0 UV-I 447 W/m 14,4 C 25,6 C 4,0 km/h (1 Bft) 0,00 %
18.07.2015 08:40 25,7 C 51 % 1015,7 hPa 0,0 l/m 0,0 km/h (0 Bft) N 359 5 min 0,000 mm 2,0 UV-I 453 W/m 14,8 C 25,7 C 0,0 km/h (0 Bft) 0,00 %
18.07.2015 08:45 26,2 C 48 % 1015,6 hPa 0,0 l/m 0,0 km/h (0 Bft) NO 52 5 min 0,000 mm 2,0 UV-I 468 W/m 14,3 C 26,2 C 0,0 km/h (0 Bft) 0,00 %
18.07.2015 08:50 26,9 C 45 % 1015,3 hPa 0,0 l/m 0,0 km/h (0 Bft) N 353 5 min 0,000 mm 2,0 UV-I 474 W/m 13,9 C 26,9 C 0,0 km/h (0 Bft) 0,00 %
18.07.2015 08:55 27,3 C 44 % 1015,3 hPa 0,0 l/m 0,0 km/h (0 Bft) W-NW 300 5 min 0,000 mm 2,0 UV-I 486 W/m 14,0 C 27,3 C 0,0 km/h (0 Bft) 0,00 %
18.07.2015 09:00 27,3 C 45 % 1015,0 hPa 0,0 l/m 0,0 km/h (0 Bft) NO 47 5 min 0,000 mm 2,0 UV-I 498 W/m 14,3 C 27,3 C 0,0 km/h (0 Bft) 0,00 %
18.07.2015 09:05 27,2 C 46 % 1014,9 hPa 0,0 l/m 0,0 km/h (0 Bft) N-NO 17 5 min 0,000 mm 2,0 UV-I 521 W/m 14,6 C 27,2 C 0,0 km/h (0 Bft) 0,00 %
18.07.2015 09:10 27,2 C 44 % 1015,2 hPa 0,0 l/m 0,0 km/h (0 Bft) NO 50 5 min 0,000 mm 2,0 UV-I 525 W/m 13,9 C 27,2 C 0,0 km/h (0 Bft) 0,00 %
18.07.2015 09:15 27,3 C 46 % 1015,3 hPa 0,0 l/m 0,0 km/h (0 Bft) NO 43 5 min 0,000 mm 2,0 UV-I 539 W/m 14,6 C 27,3 C 0,0 km/h (0 Bft) 0,00 %
18.07.2015 09:20 27,6 C 44 % 1015,2 hPa 0,0 l/m 1,8 km/h (1 Bft) N-NW 331 5 min 0,000 mm 2,0 UV-I 546 W/m 14,2 C 27,6 C 4,0 km/h (1 Bft) 0,00 %
18.07.2015 09:25 27,8 C 44 % 1014,8 hPa 0,0 l/m 0,4 km/h (0 Bft) NW 314 5 min 0,000 mm 2,0 UV-I 556 W/m 14,4 C 27,8 C 4,0 km/h (1 Bft) 0,00 %
18.07.2015 09:30 27,7 C 45 % 1014,9 hPa 0,0 l/m 0,7 km/h (0 Bft) N-NW 343 5 min 0,000 mm 2,0 UV-I 569 W/m 14,7 C 27,7 C 4,0 km/h (1 Bft) 0,00 %
18.07.2015 09:35 27,6 C 44 % 1014,9 hPa 0,0 l/m 0,0 km/h (0 Bft) N-NO 28 5 min 0,000 mm 2,0 UV-I 578 W/m 14,2 C 27,6 C 0,0 km/h (0 Bft) 0,00 %
18.07.2015 09:40 27,8 C 42 % 1015,0 hPa 0,0 l/m 0,0 km/h (0 Bft) NO 49 5 min 0,000 mm 2,0 UV-I 594 W/m 13,7 C 27,8 C 0,0 km/h (0 Bft) 0,00 %
18.07.2015 09:45 28,3 C 41 % 1014,7 hPa 0,0 l/m 0,0 km/h (0 Bft) N-NO 29 5 min 0,000 mm 2,0 UV-I 603 W/m 13,8 C 28,3 C 0,0 km/h (0 Bft) 0,00 %
18.07.2015 09:50 28,9 C 41 % 1014,6 hPa 0,0 l/m 0,7 km/h (0 Bft) NW 323 5 min 0,000 mm 2,0 UV-I 615 W/m 14,3 C 28,9 C 4,0 km/h (1 Bft) 0,00 %
18.07.2015 09:55 29,1 C 42 % 1014,7 hPa 0,0 l/m 0,0 km/h (0 Bft) N-NO 31 5 min 0,000 mm 3,0 UV-I 629 W/m 14,9 C 29,1 C 0,0 km/h (0 Bft) 0,00 %
18.07.2015 10:00 29,2 C 41 % 1014,7 hPa 0,0 l/m 0,0 km/h (0 Bft) W-NW 298 5 min 0,000 mm 3,0 UV-I 634 W/m 14,6 C 29,2 C 0,0 km/h (0 Bft) 0,00 %
18.07.2015 10:05 29,3 C 40 % 1014,7 hPa 0,0 l/m 0,0 km/h (0 Bft) NO 51 5 min 0,000 mm 3,0 UV-I 647 W/m 14,3 C 29,3 C 0,0 km/h (0 Bft) 0,00 %
18.07.2015 10:10 29,3 C 37 % 1014,6 hPa 0,0 l/m 0,0 km/h (0 Bft) N-NW 345 5 min 0,000 mm 3,0 UV-I 655 W/m 13,1 C 29,3 C 0,0 km/h (0 Bft) 0,00 %
18.07.2015 10:15 29,5 C 39 % 1014,5 hPa 0,0 l/m 0,4 km/h (0 Bft) W-NW 298 5 min 0,000 mm 3,0 UV-I 665 W/m 14,1 C 29,5 C 4,0 km/h (1 Bft) 0,00 %
18.07.2015 10:20 29,8 C 40 % 1014,5 hPa 0,0 l/m 0,0 km/h (0 Bft) NO 56 5 min 0,000 mm 3,0 UV-I 681 W/m 14,7 C 29,8 C 0,0 km/h (0 Bft) 0,00 %
18.07.2015 10:25 29,8 C 41 % 1014,7 hPa 0,0 l/m 0,7 km/h (0 Bft) N-NW 333 5 min 0,000 mm 3,0 UV-I 695 W/m 15,1 C 29,8 C 4,0 km/h (1 Bft) 0,00 %
18.07.2015 10:30 29,7 C 41 % 1014,9 hPa 0,0 l/m 0,0 km/h (0 Bft) N-NW 346 5 min 0,000 mm 3,0 UV-I 703 W/m 15,0 C 29,7 C 0,0 km/h (0 Bft) 0,00 %
18.07.2015 10:35 29,7 C 39 % 1014,9 hPa 0,0 l/m 0,0 km/h (0 Bft) NO 55 5 min 0,000 mm 3,0 UV-I 725 W/m 14,2 C 29,7 C 0,0 km/h (0 Bft) 0,00 %
18.07.2015 10:40 29,9 C 39 % 1014,7 hPa 0,0 l/m 0,0 km/h (0 Bft) N-NO 26 5 min 0,000 mm 3,0 UV-I 733 W/m 14,4 C 29,9 C 0,0 km/h (0 Bft) 0,00 %
18.07.2015 10:45 30,0 C 39 % 1014,7 hPa 0,0 l/m 0,0 km/h (0 Bft) N-NO 29 5 min 0,000 mm 3,0 UV-I 743 W/m 14,5 C 30,0 C 0,0 km/h (0 Bft) 0,00 %
18.07.2015 10:50 30,3 C 35 % 1014,4 hPa 0,0 l/m 0,0 km/h (0 Bft) N-NO 26 5 min 0,000 mm 4,0 UV-I 749 W/m 13,1 C 30,3 C 0,0 km/h (0 Bft) 0,00 %
18.07.2015 10:55 30,9 C 35 % 1014,4 hPa 0,0 l/m 1,4 km/h (1 Bft) N-NW 344 5 min 0,000 mm 4,0 UV-I 754 W/m 13,6 C 30,9 C 4,0 km/h (1 Bft) 0,00 %
18.07.2015 11:00 31,1 C 36 % 1014,4 hPa 0,0 l/m 2,9 km/h (1 Bft) O-SO 106 5 min 0,000 mm 4,0 UV-I 758 W/m 14,2 C 31,1 C 4,0 km/h (1 Bft) 0,00 %
18.07.2015 11:05 31,0 C 37 % 1014,4 hPa 0,0 l/m 1,8 km/h (1 Bft) W-NW 298 5 min 0,000 mm 4,0 UV-I 760 W/m 14,6 C 31,0 C 4,0 km/h (1 Bft) 0,00 %
18.07.2015 11:10 31,1 C 35 % 1014,1 hPa 0,0 l/m 2,9 km/h (1 Bft) NW 326 5 min 0,000 mm 4,0 UV-I 773 W/m 13,8 C 31,1 C 4,0 km/h (1 Bft) 0,00 %
18.07.2015 11:15 30,8 C 36 % 1014,0 hPa 0,0 l/m 0,4 km/h (0 Bft) W-NW 291 5 min 0,000 mm 4,0 UV-I 789 W/m 14,0 C 30,8 C 4,0 km/h (1 Bft) 0,00 %
18.07.2015 11:20 30,6 C 33 % 1014,2 hPa 0,0 l/m 0,0 km/h (0 Bft) NW 323 5 min 0,000 mm 4,0 UV-I 812 W/m 12,5 C 30,6 C 0,0 km/h (0 Bft) 0,00 %
18.07.2015 11:25 30,8 C 38 % 1014,1 hPa 0,0 l/m 0,0 km/h (0 Bft) N-NO 32 5 min 0,000 mm 4,0 UV-I 772 W/m 14,8 C 30,8 C 0,0 km/h (0 Bft) 0,00 %
18.07.2015 11:30 31,3 C 34 % 1013,8 hPa 0,0 l/m 0,0 km/h (0 Bft) NO 54 5 min 0,000 mm 4,0 UV-I 812 W/m 13,5 C 31,3 C 0,0 km/h (0 Bft) 0,00 %
18.07.2015 11:35 31,7 C 35 % 1013,6 hPa 0,0 l/m 4,3 km/h (1 Bft) O-SO 121 5 min 0,000 mm 5,0 UV-I 824 W/m 14,3 C 31,7 C 7,9 km/h (2 Bft) 0,00 %
18.07.2015 11:40 31,9 C 35 % 1013,7 hPa 0,0 l/m 0,4 km/h (0 Bft) NO 34 5 min 0,000 mm 5,0 UV-I 836 W/m 14,5 C 31,9 C 4,0 km/h (1 Bft) 0,00 %
18.07.2015 11:45 31,7 C 36 % 1013,8 hPa 0,0 l/m 0,0 km/h (0 Bft) N-NO 17 5 min 0,000 mm 5,0 UV-I 838 W/m 14,8 C 31,7 C 0,0 km/h (0 Bft) 0,00 %
18.07.2015 11:50 31,6 C 35 % 1013,9 hPa 0,0 l/m 0,4 km/h (0 Bft) N 354 5 min 0,000 mm 5,0 UV-I 842 W/m 14,2 C 31,6 C 4,0 km/h (1 Bft) 0,00 %
18.07.2015 11:55 31,7 C 36 % 1014,0 hPa 0,0 l/m 0,0 km/h (0 Bft) NO 40 5 min 0,000 mm 5,0 UV-I 848 W/m 14,8 C 31,7 C 0,0 km/h (0 Bft) 0,00 %
18.07.2015 12:00 31,8 C 31 % 1013,9 hPa 0,0 l/m 0,0 km/h (0 Bft) NO 36 5 min 0,000 mm 5,0 UV-I 853 W/m 12,6 C 31,8 C 0,0 km/h (0 Bft) 0,00 %
18.07.2015 12:05 31,8 C 32 % 1013,8 hPa 0,0 l/m 0,0 km/h (0 Bft) NO 50 5 min 0,000 mm 5,0 UV-I 867 W/m 13,0 C 31,8 C 0,0 km/h (0 Bft) 0,00 %
18.07.2015 12:10 31,8 C 33 % 1013,6 hPa 0,0 l/m 0,7 km/h (0 Bft) W-NW 298 5 min 0,000 mm 5,0 UV-I 868 W/m 13,5 C 31,8 C 4,0 km/h (1 Bft) 0,00 %
18.07.2015 12:15 31,8 C 31 % 1013,8 hPa 0,0 l/m 0,0 km/h (0 Bft) N 349 5 min 0,000 mm 5,0 UV-I 884 W/m 12,6 C 31,8 C 0,0 km/h (0 Bft) 0,00 %
18.07.2015 12:20 31,8 C 31 % 1013,5 hPa 0,0 l/m 0,0 km/h (0 Bft) N-NO 17 5 min 0,000 mm 5,0 UV-I 889 W/m 12,6 C 31,8 C 0,0 km/h (0 Bft) 0,00 %
18.07.2015 12:25 31,8 C 32 % 1013,3 hPa 0,0 l/m 0,7 km/h (0 Bft) S-SO 149 5 min 0,000 mm 5,0 UV-I 893 W/m 13,0 C 31,8 C 4,0 km/h (1 Bft) 0,00 %
18.07.2015 12:30 31,8 C 33 % 1013,4 hPa 0,0 l/m 2,9 km/h (1 Bft) N-NW 327 5 min 0,000 mm 5,0 UV-I 893 W/m 13,5 C 31,8 C 4,0 km/h (1 Bft) 0,00 %
18.07.2015 12:35 31,9 C 32 % 1013,0 hPa 0,0 l/m 0,0 km/h (0 Bft) O-NO 76 5 min 0,000 mm 5,0 UV-I 893 W/m 13,1 C 31,9 C 0,0 km/h (0 Bft) 0,00 %
18.07.2015 12:40 32,0 C 32 % 1013,2 hPa 0,0 l/m 0,0 km/h (0 Bft) N-NO 14 5 min 0,000 mm 6,0 UV-I 896 W/m 13,2 C 32,0 C 0,0 km/h (0 Bft) 0,00 %
18.07.2015 12:45 32,2 C 33 % 1013,3 hPa 0,0 l/m 0,0 km/h (0 Bft) N-NO 22 5 min 0,000 mm 6,0 UV-I 907 W/m 13,9 C 32,2 C 0,0 km/h (0 Bft) 0,00 %
18.07.2015 12:50 32,5 C 31 % 1013,0 hPa 0,0 l/m 0,0 km/h (0 Bft) NW 320 5 min 0,000 mm 6,0 UV-I 909 W/m 13,2 C 32,5 C 0,0 km/h (0 Bft) 0,00 %
18.07.2015 12:55 32,9 C 31 % 1012,9 hPa 0,0 l/m 0,0 km/h (0 Bft) NO 38 5 min 0,000 mm 5,0 UV-I 916 W/m 13,5 C 32,9 C 0,0 km/h (0 Bft) 0,00 %
18.07.2015 13:00 33,0 C 29 % 1012,7 hPa 0,0 l/m 4,7 km/h (1 Bft) N-NW 341 5 min 0,000 mm 6,0 UV-I 921 W/m 12,6 C 33,0 C 7,9 km/h (2 Bft) 0,00 %
18.07.2015 13:05 32,9 C 33 % 1012,9 hPa 0,0 l/m 1,8 km/h (1 Bft) W-NW 295 5 min 0,000 mm 6,0 UV-I 922 W/m 14,5 C 32,9 C 4,0 km/h (1 Bft) 0,00 %
18.07.2015 13:10 32,8 C 30 % 1012,9 hPa 0,0 l/m 0,0 km/h (0 Bft) N-NO 21 5 min 0,000 mm 6,0 UV-I 929 W/m 12,9 C 32,8 C 0,0 km/h (0 Bft) 0,00 %
18.07.2015 13:15 32,9 C 30 % 1012,8 hPa 0,0 l/m 4,3 km/h (1 Bft) W-NW 284 5 min 0,000 mm 5,0 UV-I 940 W/m 13,0 C 32,9 C 7,9 km/h (2 Bft) 0,00 %
18.07.2015 13:20 33,1 C 32 % 1012,9 hPa 0,0 l/m 0,4 km/h (0 Bft) O-SO 104 5 min 0,000 mm 5,0 UV-I 932 W/m 14,2 C 33,1 C 4,0 km/h (1 Bft) 0,00 %
18.07.2015 13:25 33,3 C 28 % 1012,9 hPa 0,0 l/m 4,0 km/h (1 Bft) W-NW 284 5 min 0,000 mm 5,0 UV-I 930 W/m 12,3 C 33,3 C 4,0 km/h (1 Bft) 0,00 %
18.07.2015 13:30 33,3 C 31 % 1012,8 hPa 0,0 l/m 2,2 km/h (1 Bft) NW 304 5 min 0,000 mm 5,0 UV-I 931 W/m 13,8 C 33,3 C 4,0 km/h (1 Bft) 0,00 %
18.07.2015 13:35 33,2 C 30 % 1012,9 hPa 0,0 l/m 1,4 km/h (1 Bft) N-NW 343 5 min 0,000 mm 5,0 UV-I 938 W/m 13,3 C 33,2 C 4,0 km/h (1 Bft) 0,00 %
18.07.2015 13:40 33,3 C 31 % 1012,6 hPa 0,0 l/m 0,0 km/h (0 Bft) N-NO 22 5 min 0,000 mm 5,0 UV-I 943 W/m 13,8 C 33,3 C 0,0 km/h (0 Bft) 0,00 %
18.07.2015 13:45 33,5 C 29 % 1012,7 hPa 0,0 l/m 0,4 km/h (0 Bft) N-NO 17 5 min 0,000 mm 5,0 UV-I 944 W/m 13,0 C 33,5 C 4,0 km/h (1 Bft) 0,00 %
18.07.2015 13:50 33,4 C 28 % 1012,8 hPa 0,0 l/m 1,4 km/h (1 Bft) O-NO 69 5 min 0,000 mm 5,0 UV-I 946 W/m 12,4 C 33,4 C 4,0 km/h (1 Bft) 0,00 %
18.07.2015 13:55 33,3 C 27 % 1012,8 hPa 0,0 l/m 1,8 km/h (1 Bft) NW 305 5 min 0,000 mm 5,0 UV-I 949 W/m 11,7 C 33,3 C 4,0 km/h (1 Bft) 0,00 %
18.07.2015 14:00 33,3 C 29 % 1012,9 hPa 0,0 l/m 2,9 km/h (1 Bft) W-SW 256 5 min 0,000 mm 5,0 UV-I 947 W/m 12,8 C 33,3 C 7,9 km/h (2 Bft) 0,00 %
18.07.2015 14:05 33,2 C 28 % 1012,8 hPa 0,0 l/m 2,9 km/h (1 Bft) NO 48 5 min 0,000 mm 5,0 UV-I 950 W/m 12,2 C 33,2 C 4,0 km/h (1 Bft) 0,00 %
18.07.2015 14:10 33,3 C 30 % 1012,7 hPa 0,0 l/m 0,7 km/h (0 Bft) W-NW 303 5 min 0,000 mm 5,0 UV-I 947 W/m 13,3 C 33,3 C 4,0 km/h (1 Bft) 0,00 %
18.07.2015 14:15 33,6 C 31 % 1012,6 hPa 0,0 l/m 4,0 km/h (1 Bft) W-NW 287 5 min 0,000 mm 5,0 UV-I 951 W/m 14,1 C 33,6 C 7,9 km/h (2 Bft) 0,00 %
18.07.2015 14:20 33,7 C 31 % 1012,5 hPa 0,0 l/m 4,0 km/h (1 Bft) W-NW 303 5 min 0,000 mm 5,0 UV-I 956 W/m 14,2 C 33,7 C 7,9 km/h (2 Bft) 0,00 %
18.07.2015 14:25 33,6 C 30 % 1012,4 hPa 0,0 l/m 4,0 km/h (1 Bft) NW 309 5 min 0,000 mm 5,0 UV-I 961 W/m 13,6 C 33,6 C 4,0 km/h (1 Bft) 0,00 %
18.07.2015 14:30 33,7 C 30 % 1012,5 hPa 0,0 l/m 0,0 km/h (0 Bft) N-NO 27 5 min 0,000 mm 5,0 UV-I 959 W/m 13,7 C 33,7 C 0,0 km/h (0 Bft) 0,00 %
18.07.2015 14:35 33,9 C 30 % 1012,5 hPa 0,0 l/m 1,8 km/h (1 Bft) N 8 5 min 0,000 mm 5,0 UV-I 958 W/m 13,9 C 33,9 C 4,0 km/h (1 Bft) 0,00 %
18.07.2015 14:40 34,2 C 30 % 1012,5 hPa 0,0 l/m 4,7 km/h (1 Bft) W-NW 303 5 min 0,000 mm 4,0 UV-I 943 W/m 14,1 C 34,2 C 7,9 km/h (2 Bft) 0,00 %
18.07.2015 14:45 34,3 C 30 % 1012,5 hPa 0,0 l/m 0,0 km/h (0 Bft) W-NW 295 5 min 0,000 mm 4,0 UV-I 942 W/m 14,2 C 34,3 C 0,0 km/h (0 Bft) 0,00 %
18.07.2015 14:50 34,2 C 30 % 1012,3 hPa 0,0 l/m 3,2 km/h (1 Bft) W 277 5 min 0,000 mm 4,0 UV-I 935 W/m 14,1 C 34,2 C 4,0 km/h (1 Bft) 0,00 %
18.07.2015 14:55 34,1 C 31 % 1012,3 hPa 0,0 l/m 0,7 km/h (0 Bft) NO 51 5 min 0,000 mm 4,0 UV-I 946 W/m 14,5 C 34,1 C 4,0 km/h (1 Bft) 0,00 %
18.07.2015 15:00 34,2 C 31 % 1012,4 hPa 0,0 l/m 2,9 km/h (1 Bft) NW 313 5 min 0,000 mm 4,0 UV-I 947 W/m 14,6 C 34,2 C 7,9 km/h (2 Bft) 0,00 %
18.07.2015 15:05 34,1 C 31 % 1012,2 hPa 0,0 l/m 5,8 km/h (2 Bft) NO 46 5 min 0,000 mm 4,0 UV-I 952 W/m 14,5 C 34,1 C 7,9 km/h (2 Bft) 0,00 %
18.07.2015 15:10 34,0 C 33 % 1012,3 hPa 0,0 l/m 0,7 km/h (0 Bft) SW 214 5 min 0,000 mm 4,0 UV-I 972 W/m 15,4 C 34,0 C 4,0 km/h (1 Bft) 0,00 %
18.07.2015 15:15 34,1 C 31 % 1012,1 hPa 0,0 l/m 3,2 km/h (1 Bft) S-SW 206 5 min 0,000 mm 4,0 UV-I 933 W/m 14,5 C 34,1 C 4,0 km/h (1 Bft) 0,00 %
18.07.2015 15:20 34,1 C 32 % 1012,2 hPa 0,0 l/m 4,7 km/h (1 Bft) W 275 5 min 0,000 mm 4,0 UV-I 919 W/m 15,0 C 34,1 C 7,9 km/h (2 Bft) 0,00 %
18.07.2015 15:25 33,8 C 31 % 1012,1 hPa 0,0 l/m 0,0 km/h (0 Bft) O-NO 69 5 min 0,000 mm 4,0 UV-I 921 W/m 14,3 C 33,8 C 0,0 km/h (0 Bft) 0,00 %
18.07.2015 15:30 33,7 C 31 % 1012,1 hPa 0,0 l/m 6,8 km/h (2 Bft) N-NW 330 5 min 0,000 mm 4,0 UV-I 907 W/m 14,2 C 33,7 C 7,9 km/h (2 Bft) 0,00 %
18.07.2015 15:35 34,0 C 31 % 1011,9 hPa 0,0 l/m 0,0 km/h (0 Bft) O-NO 61 5 min 0,000 mm 4,0 UV-I 882 W/m 14,4 C 34,0 C 0,0 km/h (0 Bft) 0,00 %
18.07.2015 15:40 34,1 C 30 % 1011,9 hPa 0,0 l/m 2,2 km/h (1 Bft) W 280 5 min 0,000 mm 3,0 UV-I 880 W/m 14,0 C 34,1 C 4,0 km/h (1 Bft) 0,00 %
18.07.2015 15:45 34,1 C 31 % 1012,0 hPa 0,0 l/m 0,0 km/h (0 Bft) NO 35 5 min 0,000 mm 3,0 UV-I 888 W/m 14,5 C 34,1 C 0,0 km/h (0 Bft) 0,00 %
18.07.2015 15:50 34,1 C 30 % 1012,0 hPa 0,0 l/m 1,8 km/h (1 Bft) N-NO 16 5 min 0,000 mm 3,0 UV-I 885 W/m 14,0 C 34,1 C 4,0 km/h (1 Bft) 0,00 %
18.07.2015 15:55 34,1 C 29 % 1011,9 hPa 0,0 l/m 1,8 km/h (1 Bft) N 352 5 min 0,000 mm 3,0 UV-I 884 W/m 13,5 C 34,1 C 4,0 km/h (1 Bft) 0,00 %
18.07.2015 16:00 34,1 C 31 % 1012,0 hPa 0,0 l/m 0,0 km/h (0 Bft) S-SW 195 5 min 0,000 mm 3,0 UV-I 850 W/m 14,5 C 34,1 C 0,0 km/h (0 Bft) 0,00 %
18.07.2015 16:05 33,9 C 30 % 1011,9 hPa 0,0 l/m 0,7 km/h (0 Bft) W-SW 256 5 min 0,000 mm 3,0 UV-I 867 W/m 13,9 C 33,9 C 4,0 km/h (1 Bft) 0,00 %
18.07.2015 16:10 34,0 C 30 % 1012,1 hPa 0,0 l/m 4,0 km/h (1 Bft) S-SO 167 5 min 0,000 mm 3,0 UV-I 834 W/m 13,9 C 34,0 C 4,0 km/h (1 Bft) 0,00 %
18.07.2015 16:15 34,1 C 28 % 1011,8 hPa 0,0 l/m 0,0 km/h (0 Bft) O-NO 64 5 min 0,000 mm 3,0 UV-I 862 W/m 13,0 C 34,1 C 0,0 km/h (0 Bft) 0,00 %
18.07.2015 16:20 34,0 C 31 % 1011,8 hPa 0,0 l/m 3,2 km/h (1 Bft) N-NW 334 5 min 0,000 mm 3,0 UV-I 867 W/m 14,4 C 34,0 C 7,9 km/h (2 Bft) 0,00 %
18.07.2015 16:25 33,8 C 33 % 1011,7 hPa 0,0 l/m 0,4 km/h (0 Bft) SO 144 5 min 0,000 mm 3,0 UV-I 860 W/m 15,2 C 33,8 C 4,0 km/h (1 Bft) 0,00 %
18.07.2015 16:30 33,6 C 32 % 1011,6 hPa 0,0 l/m 0,7 km/h (0 Bft) N-NO 24 5 min 0,000 mm 3,0 UV-I 843 W/m 14,6 C 33,6 C 4,0 km/h (1 Bft) 0,00 %
18.07.2015 16:35 33,4 C 32 % 1011,6 hPa 0,0 l/m 4,3 km/h (1 Bft) N-NW 333 5 min 0,000 mm 2,0 UV-I 827 W/m 14,4 C 33,4 C 7,9 km/h (2 Bft) 0,00 %
18.07.2015 16:40 33,3 C 32 % 1011,7 hPa 0,0 l/m 0,4 km/h (0 Bft) NO 39 5 min 0,000 mm 2,0 UV-I 753 W/m 14,3 C 33,3 C 4,0 km/h (1 Bft) 0,00 %
18.07.2015 16:45 33,3 C 31 % 1011,8 hPa 0,0 l/m 2,2 km/h (1 Bft) NO 37 5 min 0,000 mm 2,0 UV-I 562 W/m 13,8 C 33,3 C 4,0 km/h (1 Bft) 0,00 %
18.07.2015 16:50 33,1 C 31 % 1011,5 hPa 0,0 l/m 0,0 km/h (0 Bft) NO 55 5 min 0,000 mm 2,0 UV-I 791 W/m 13,7 C 33,1 C 0,0 km/h (0 Bft) 0,00 %
18.07.2015 16:55 33,1 C 31 % 1011,6 hPa 0,0 l/m 0,7 km/h (0 Bft) N-NO 33 5 min 0,000 mm 2,0 UV-I 779 W/m 13,7 C 33,1 C 4,0 km/h (1 Bft) 0,00 %
18.07.2015 17:00 33,3 C 31 % 1011,3 hPa 0,0 l/m 0,0 km/h (0 Bft) NO 38 5 min 0,000 mm 2,0 UV-I 718 W/m 13,8 C 33,3 C 0,0 km/h (0 Bft) 0,00 %
18.07.2015 17:05 33,3 C 31 % 1011,1 hPa 0,0 l/m 0,7 km/h (0 Bft) N-NW 345 5 min 0,000 mm 2,0 UV-I 656 W/m 13,8 C 33,3 C 4,0 km/h (1 Bft) 0,00 %
18.07.2015 17:10 33,3 C 31 % 1011,4 hPa 0,0 l/m 0,0 km/h (0 Bft) NO 35 5 min 0,000 mm 2,0 UV-I 729 W/m 13,8 C 33,3 C 0,0 km/h (0 Bft) 0,00 %
18.07.2015 17:15 33,3 C 32 % 1011,2 hPa 0,0 l/m 2,2 km/h (1 Bft) NW 323 5 min 0,000 mm 2,0 UV-I 677 W/m 14,3 C 33,3 C 4,0 km/h (1 Bft) 0,00 %
18.07.2015 17:20 33,3 C 33 % 1011,2 hPa 0,0 l/m 0,0 km/h (0 Bft) NW 324 0 min 0,000 mm 2,0 UV-I 227 W/m 14,8 C 33,3 C 0,0 km/h (0 Bft) 0,00 %
18.07.2015 17:25 33,3 C 33 % 1011,1 hPa 0,0 l/m 2,9 km/h (1 Bft) N 352 0 min 0,000 mm 2,0 UV-I 256 W/m 14,8 C 33,3 C 4,0 km/h (1 Bft) 0,00 %
18.07.2015 17:30 33,1 C 33 % 1011,3 hPa 0,0 l/m 2,9 km/h (1 Bft) SO 136 5 min 0,000 mm 1,0 UV-I 581 W/m 14,6 C 33,1 C 4,0 km/h (1 Bft) 0,00 %
18.07.2015 17:35 32,7 C 33 % 1011,2 hPa 0,0 l/m 7,2 km/h (2 Bft) N-NW 339 5 min 0,000 mm 1,0 UV-I 665 W/m 14,3 C 32,7 C 7,9 km/h (2 Bft) 0,00 %
18.07.2015 17:40 32,1 C 32 % 1011,3 hPa 0,0 l/m 0,4 km/h (0 Bft) NO 35 5 min 0,000 mm 1,0 UV-I 637 W/m 13,3 C 32,1 C 4,0 km/h (1 Bft) 0,00 %
18.07.2015 17:45 31,7 C 31 % 1011,4 hPa 0,0 l/m 2,9 km/h (1 Bft) W-SW 256 5 min 0,000 mm 1,0 UV-I 607 W/m 12,5 C 31,7 C 4,0 km/h (1 Bft) 0,00 %
18.07.2015 17:50 31,8 C 31 % 1011,2 hPa 0,0 l/m 0,4 km/h (0 Bft) N-NO 13 0 min 0,000 mm 1,0 UV-I 237 W/m 12,6 C 31,8 C 4,0 km/h (1 Bft) 0,00 %
18.07.2015 17:55 31,7 C 31 % 1011,5 hPa 0,0 l/m 0,0 km/h (0 Bft) NO 45 0 min 0,000 mm 1,0 UV-I 222 W/m 12,5 C 31,7 C 0,0 km/h (0 Bft) 0,00 %
18.07.2015 18:00 31,6 C 30 % 1011,4 hPa 0,0 l/m 0,0 km/h (0 Bft) W 281 0 min 0,000 mm 1,0 UV-I 204 W/m 11,9 C 31,6 C 0,0 km/h (0 Bft) 0,00 %
18.07.2015 18:05 31,6 C 30 % 1011,4 hPa 0,0 l/m 0,0 km/h (0 Bft) W-SW 256 5 min 0,000 mm 1,0 UV-I 370 W/m 11,9 C 31,6 C 0,0 km/h (0 Bft) 0,00 %
18.07.2015 18:10 31,9 C 32 % 1011,5 hPa 0,0 l/m 0,0 km/h (0 Bft) N-NO 17 5 min 0,000 mm 1,0 UV-I 476 W/m 13,1 C 31,9 C 0,0 km/h (0 Bft) 0,00 %
18.07.2015 18:15 31,8 C 29 % 1011,5 hPa 0,0 l/m 0,0 km/h (0 Bft) N-NW 346 5 min 0,000 mm 1,0 UV-I 437 W/m 11,5 C 31,8 C 0,0 km/h (0 Bft) 0,00 %
18.07.2015 18:20 31,2 C 32 % 1011,5 hPa 0,0 l/m 0,0 km/h (0 Bft) O-NO 57 0 min 0,000 mm 1,0 UV-I 140 W/m 12,5 C 31,2 C 0,0 km/h (0 Bft) 0,00 %
18.07.2015 18:25 30,8 C 31 % 1011,6 hPa 0,0 l/m 0,0 km/h (0 Bft) NO 41 0 min 0,000 mm 1,0 UV-I 96 W/m 11,7 C 30,8 C 0,0 km/h (0 Bft) 0,00 %
18.07.2015 18:30 30,8 C 32 % 1011,5 hPa 0,0 l/m 0,4 km/h (0 Bft) S 183 0 min 0,000 mm 1,0 UV-I 88 W/m 12,2 C 30,8 C 4,0 km/h (1 Bft) 0,00 %
18.07.2015 18:35 31,2 C 32 % 1011,4 hPa 0,0 l/m 0,4 km/h (0 Bft) N-NW 348 0 min 0,000 mm 1,0 UV-I 93 W/m 12,5 C 31,2 C 4,0 km/h (1 Bft) 0,00 %
18.07.2015 18:40 31,4 C 31 % 1011,5 hPa 0,0 l/m 0,0 km/h (0 Bft) N 350 0 min 0,000 mm 1,0 UV-I 106 W/m 12,2 C 31,4 C 0,0 km/h (0 Bft) 0,00 %
18.07.2015 18:45 31,4 C 32 % 1011,5 hPa 0,0 l/m 0,0 km/h (0 Bft) NO 36 0 min 0,000 mm 1,0 UV-I 94 W/m 12,7 C 31,4 C 0,0 km/h (0 Bft) 0,00 %
18.07.2015 18:50 31,3 C 31 % 1011,4 hPa 0,0 l/m 0,4 km/h (0 Bft) N 9 0 min 0,000 mm 1,0 UV-I 95 W/m 12,1 C 31,3 C 4,0 km/h (1 Bft) 0,00 %
18.07.2015 18:55 31,1 C 33 % 1011,4 hPa 0,0 l/m 0,4 km/h (0 Bft) NO 45 0 min 0,000 mm 1,0 UV-I 73 W/m 12,9 C 31,1 C 4,0 km/h (1 Bft) 0,00 %
18.07.2015 19:00 30,5 C 32 % 1011,6 hPa 0,0 l/m 0,0 km/h (0 Bft) N-NO 32 0 min 0,000 mm 1,0 UV-I 51 W/m 11,9 C 30,5 C 0,0 km/h (0 Bft) 0,00 %
18.07.2015 19:05 30,1 C 36 % 1011,8 hPa 0,0 l/m 0,0 km/h (0 Bft) NO 42 0 min 0,000 mm 1,0 UV-I 32 W/m 13,4 C 30,1 C 0,0 km/h (0 Bft) 0,00 %
18.07.2015 19:10 30,0 C 35 % 1011,7 hPa 0,0 l/m 0,0 km/h (0 Bft) O-NO 60 0 min 0,000 mm 1,0 UV-I 19 W/m 12,8 C 30,0 C 0,0 km/h (0 Bft) 0,00 %
18.07.2015 19:15 30,2 C 34 % 1011,6 hPa 0,0 l/m 0,0 km/h (0 Bft) NO 36 0 min 0,000 mm 1,0 UV-I 9 W/m 12,6 C 30,2 C 0,0 km/h (0 Bft) 0,00 %
18.07.2015 19:20 30,5 C 33 % 1011,5 hPa 0,0 l/m 0,0 km/h (0 Bft) NO 38 0 min 0,000 mm 1,0 UV-I 5 W/m 12,4 C 30,5 C 0,0 km/h (0 Bft) 0,00 %
18.07.2015 19:25 30,3 C 34 % 1011,8 hPa 0,0 l/m 0,0 km/h (0 Bft) NO 50 0 min 0,000 mm 1,0 UV-I 2 W/m 12,7 C 30,3 C 0,0 km/h (0 Bft) 0,00 %
18.07.2015 19:30 29,8 C 36 % 1011,9 hPa 0,0 l/m 0,4 km/h (0 Bft) S 189 0 min 0,000 mm 0,0 UV-I 0 W/m 13,1 C 29,8 C 4,0 km/h (1 Bft) 0,00 %
18.07.2015 19:35 29,2 C 38 % 1011,9 hPa 0,0 l/m 0,0 km/h (0 Bft) NO 38 0 min 0,000 mm 0,0 UV-I 0 W/m 13,4 C 29,2 C 0,0 km/h (0 Bft) 0,00 %
18.07.2015 19:40 28,9 C 39 % 1011,8 hPa 0,0 l/m 0,0 km/h (0 Bft) O-NO 62 0 min 0,000 mm 0,0 UV-I 0 W/m 13,5 C 28,9 C 0,0 km/h (0 Bft) 0,00 %
18.07.2015 19:45 28,7 C 41 % 1012,1 hPa 0,0 l/m 0,4 km/h (0 Bft) W-SW 256 0 min 0,000 mm 0,0 UV-I 0 W/m 14,1 C 28,7 C 4,0 km/h (1 Bft) 0,00 %
18.07.2015 19:50 28,5 C 41 % 1012,1 hPa 0,0 l/m 0,0 km/h (0 Bft) O-NO 57 0 min 0,000 mm 0,0 UV-I 0 W/m 13,9 C 28,5 C 0,0 km/h (0 Bft) 0,00 %
18.07.2015 19:55 28,3 C 40 % 1011,9 hPa 0,0 l/m 2,2 km/h (1 Bft) SW 218 0 min 0,000 mm 0,0 UV-I 0 W/m 13,4 C 28,3 C 4,0 km/h (1 Bft) 0,00 %
18.07.2015 20:00 28,2 C 40 % 1012,2 hPa 0,0 l/m 0,0 km/h (0 Bft) N-NW 347 0 min 0,000 mm 0,0 UV-I 0 W/m 13,3 C 28,2 C 0,0 km/h (0 Bft) 0,00 %
18.07.2015 20:05 28,1 C 40 % 1012,2 hPa 0,0 l/m 0,0 km/h (0 Bft) NO 48 0 min 0,000 mm 0,0 UV-I 0 W/m 13,2 C 28,1 C 0,0 km/h (0 Bft) 0,00 %
18.07.2015 20:10 27,9 C 41 % 1012,2 hPa 0,0 l/m 0,0 km/h (0 Bft) N-NO 31 0 min 0,000 mm 0,0 UV-I 0 W/m 13,4 C 27,9 C 0,0 km/h (0 Bft) 0,00 %
18.07.2015 20:15 27,8 C 42 % 1012,2 hPa 0,0 l/m 0,0 km/h (0 Bft) NO 42 0 min 0,000 mm 0,0 UV-I 0 W/m 13,7 C 27,8 C 0,0 km/h (0 Bft) 0,00 %
18.07.2015 20:20 27,5 C 43 % 1012,3 hPa 0,0 l/m 0,0 km/h (0 Bft) NO 44 0 min 0,000 mm 0,0 UV-I 0 W/m 13,8 C 27,5 C 0,0 km/h (0 Bft) 0,00 %
18.07.2015 20:25 27,2 C 42 % 1012,2 hPa 0,0 l/m 0,0 km/h (0 Bft) NO 44 0 min 0,000 mm 0,0 UV-I 0 W/m 13,2 C 27,2 C 0,0 km/h (0 Bft) 0,00 %
18.07.2015 20:30 26,9 C 42 % 1012,3 hPa 0,0 l/m 0,0 km/h (0 Bft) NO 52 0 min 0,000 mm 0,0 UV-I 0 W/m 12,9 C 26,9 C 0,0 km/h (0 Bft) 0,00 %
18.07.2015 20:35 26,7 C 43 % 1012,3 hPa 0,0 l/m 0,0 km/h (0 Bft) O-NO 61 0 min 0,000 mm 0,0 UV-I 0 W/m 13,1 C 26,7 C 0,0 km/h (0 Bft) 0,00 %
18.07.2015 20:40 26,6 C 43 % 1012,3 hPa 0,0 l/m 0,0 km/h (0 Bft) NO 40 0 min 0,000 mm 0,0 UV-I 0 W/m 13,0 C 26,6 C 0,0 km/h (0 Bft) 0,00 %
18.07.2015 20:45 26,4 C 45 % 1012,2 hPa 0,0 l/m 0,0 km/h (0 Bft) NO 42 0 min 0,000 mm 0,0 UV-I 0 W/m 13,5 C 26,4 C 0,0 km/h (0 Bft) 0,00 %
18.07.2015 20:50 26,2 C 44 % 1012,5 hPa 0,0 l/m 0,0 km/h (0 Bft) NO 48 0 min 0,000 mm 0,0 UV-I 0 W/m 13,0 C 26,2 C 0,0 km/h (0 Bft) 0,00 %
18.07.2015 20:55 26,1 C 45 % 1012,7 hPa 0,0 l/m 0,0 km/h (0 Bft) NO 36 0 min 0,000 mm 0,0 UV-I 0 W/m 13,2 C 26,1 C 0,0 km/h (0 Bft) 0,00 %
18.07.2015 21:00 25,9 C 47 % 1012,8 hPa 0,0 l/m 0,0 km/h (0 Bft) NO 42 0 min 0,000 mm 0,0 UV-I 0 W/m 13,7 C 25,9 C 0,0 km/h (0 Bft) 0,00 %
18.07.2015 21:05 25,8 C 48 % 1012,8 hPa 0,0 l/m 0,4 km/h (0 Bft) O-NO 58 0 min 0,000 mm 0,0 UV-I 0 W/m 13,9 C 25,8 C 4,0 km/h (1 Bft) 0,00 %
18.07.2015 21:10 25,8 C 47 % 1013,0 hPa 0,0 l/m 0,4 km/h (0 Bft) N 351 0 min 0,000 mm 0,0 UV-I 0 W/m 13,6 C 25,8 C 4,0 km/h (1 Bft) 0,00 %
18.07.2015 21:15 25,8 C 45 % 1013,0 hPa 0,0 l/m 0,0 km/h (0 Bft) NO 47 0 min 0,000 mm 0,0 UV-I 0 W/m 13,0 C 25,8 C 0,0 km/h (0 Bft) 0,00 %
18.07.2015 21:20 25,9 C 44 % 1013,2 hPa 0,0 l/m 0,0 km/h (0 Bft) NW 304 0 min 0,000 mm 0,0 UV-I 0 W/m 12,7 C 25,9 C 0,0 km/h (0 Bft) 0,00 %
18.07.2015 21:25 26,0 C 44 % 1013,3 hPa 0,0 l/m 0,0 km/h (0 Bft) N-NW 332 0 min 0,000 mm 0,0 UV-I 0 W/m 12,8 C 26,0 C 0,0 km/h (0 Bft) 0,00 %
18.07.2015 21:30 26,0 C 44 % 1013,4 hPa 0,0 l/m 1,4 km/h (1 Bft) N-NW 331 0 min 0,000 mm 0,0 UV-I 0 W/m 12,8 C 26,0 C 4,0 km/h (1 Bft) 0,00 %
18.07.2015 21:35 26,0 C 44 % 1013,4 hPa 0,0 l/m 0,4 km/h (0 Bft) N 353 0 min 0,000 mm 0,0 UV-I 0 W/m 12,8 C 26,0 C 4,0 km/h (1 Bft) 0,00 %
18.07.2015 21:40 26,0 C 46 % 1013,3 hPa 0,0 l/m 0,0 km/h (0 Bft) NO 39 0 min 0,000 mm 0,0 UV-I 0 W/m 13,5 C 26,0 C 0,0 km/h (0 Bft) 0,00 %
18.07.2015 21:45 25,9 C 46 % 1012,7 hPa 0,0 l/m 0,4 km/h (0 Bft) NO 54 0 min 0,000 mm 0,0 UV-I 0 W/m 13,4 C 25,9 C 4,0 km/h (1 Bft) 0,00 %
18.07.2015 21:50 25,7 C 52 % 1012,5 hPa 0,0 l/m 0,0 km/h (0 Bft) N-NO 31 0 min 0,000 mm 0,0 UV-I 0 W/m 15,1 C 25,7 C 0,0 km/h (0 Bft) 0,00 %
18.07.2015 21:55 25,3 C 57 % 1012,6 hPa 0,0 l/m 0,0 km/h (0 Bft) O 81 0 min 0,000 mm 0,0 UV-I 0 W/m 16,2 C 25,3 C 0,0 km/h (0 Bft) 0,00 %
18.07.2015 22:00 24,7 C 61 % 1012,8 hPa 0,0 l/m 0,0 km/h (0 Bft) NO 56 0 min 0,000 mm 0,0 UV-I 0 W/m 16,7 C 24,7 C 0,0 km/h (0 Bft) 0,00 %
18.07.2015 22:05 24,1 C 66 % 1013,4 hPa 0,0 l/m 4,0 km/h (1 Bft) N-NW 332 0 min 0,000 mm 0,0 UV-I 0 W/m 17,3 C 24,1 C 7,9 km/h (2 Bft) 0,00 %
18.07.2015 22:10 23,6 C 66 % 1013,9 hPa 0,0 l/m 0,0 km/h (0 Bft) N-NW 328 0 min 0,000 mm 0,0 UV-I 0 W/m 16,9 C 23,6 C 0,0 km/h (0 Bft) 0,00 %
18.07.2015 22:15 23,3 C 65 % 1014,0 hPa 0,0 l/m 0,0 km/h (0 Bft) NO 36 0 min 0,000 mm 0,0 UV-I 0 W/m 16,3 C 23,3 C 0,0 km/h (0 Bft) 0,00 %
18.07.2015 22:20 23,2 C 65 % 1014,1 hPa 0,0 l/m 0,0 km/h (0 Bft) O-NO 73 0 min 0,000 mm 0,0 UV-I 0 W/m 16,2 C 23,2 C 0,0 km/h (0 Bft) 0,00 %
18.07.2015 22:25 23,2 C 66 % 1013,8 hPa 0,0 l/m 0,0 km/h (0 Bft) NO 44 0 min 0,000 mm 0,0 UV-I 0 W/m 16,5 C 23,2 C 0,0 km/h (0 Bft) 0,00 %
18.07.2015 22:30 23,2 C 65 % 1013,6 hPa 0,0 l/m 0,0 km/h (0 Bft) NO 35 0 min 0,000 mm 0,0 UV-I 0 W/m 16,2 C 23,2 C 0,0 km/h (0 Bft) 0,00 %
18.07.2015 22:35 23,1 C 66 % 1013,3 hPa 0,0 l/m 0,0 km/h (0 Bft) W-SW 253 0 min 0,000 mm 0,0 UV-I 0 W/m 16,4 C 23,1 C 0,0 km/h (0 Bft) 0,00 %
18.07.2015 22:40 22,9 C 69 % 1013,0 hPa 0,3 l/m 0,7 km/h (0 Bft) O 90 0 min 0,000 mm 0,0 UV-I 0 W/m 16,9 C 22,9 C 4,0 km/h (1 Bft) 0,00 %
18.07.2015 22:45 22,6 C 72 % 1013,3 hPa 0,0 l/m 1,4 km/h (1 Bft) O 94 0 min 0,000 mm 0,0 UV-I 0 W/m 17,3 C 22,6 C 4,0 km/h (1 Bft) 0,00 %
18.07.2015 22:50 22,3 C 73 % 1013,5 hPa 0,0 l/m 0,0 km/h (0 Bft) O-NO 57 0 min 0,000 mm 0,0 UV-I 0 W/m 17,2 C 22,3 C 0,0 km/h (0 Bft) 0,00 %
18.07.2015 22:55 22,0 C 74 % 1013,8 hPa 0,0 l/m 0,0 km/h (0 Bft) NO 46 0 min 0,000 mm 0,0 UV-I 0 W/m 17,1 C 22,0 C 0,0 km/h (0 Bft) 0,00 %
18.07.2015 23:00 21,8 C 76 % 1014,0 hPa 0,0 l/m 0,0 km/h (0 Bft) N-NO 21 0 min 0,000 mm 0,0 UV-I 0 W/m 17,4 C 21,8 C 0,0 km/h (0 Bft) 0,00 %
18.07.2015 23:05 21,5 C 76 % 1014,2 hPa 0,0 l/m 0,7 km/h (0 Bft) NW 325 0 min 0,000 mm 0,0 UV-I 0 W/m 17,1 C 21,5 C 4,0 km/h (1 Bft) 0,00 %
18.07.2015 23:10 21,4 C 76 % 1014,2 hPa 0,0 l/m 0,0 km/h (0 Bft) NO 49 0 min 0,000 mm 0,0 UV-I 0 W/m 17,0 C 21,4 C 0,0 km/h (0 Bft) 0,00 %
18.07.2015 23:15 21,3 C 77 % 1014,2 hPa 0,0 l/m 0,0 km/h (0 Bft) N-NO 33 0 min 0,000 mm 0,0 UV-I 0 W/m 17,1 C 21,3 C 0,0 km/h (0 Bft) 0,00 %
18.07.2015 23:20 21,2 C 76 % 1014,3 hPa 0,0 l/m 0,0 km/h (0 Bft) NO 39 0 min 0,000 mm 0,0 UV-I 0 W/m 16,8 C 21,2 C 0,0 km/h (0 Bft) 0,00 %
18.07.2015 23:25 21,2 C 76 % 1014,4 hPa 0,0 l/m 0,0 km/h (0 Bft) NO 38 0 min 0,000 mm 0,0 UV-I 0 W/m 16,8 C 21,2 C 0,0 km/h (0 Bft) 0,00 %
18.07.2015 23:30 21,2 C 77 % 1014,2 hPa 0,0 l/m 0,0 km/h (0 Bft) NO 44 0 min 0,000 mm 0,0 UV-I 0 W/m 17,0 C 21,2 C 0,0 km/h (0 Bft) 0,00 %
18.07.2015 23:35 21,2 C 78 % 1014,3 hPa 0,0 l/m 0,0 km/h (0 Bft) NO 44 0 min 0,000 mm 0,0 UV-I 0 W/m 17,2 C 21,2 C 0,0 km/h (0 Bft) 0,00 %
18.07.2015 23:40 21,1 C 79 % 1014,0 hPa 0,0 l/m 0,0 km/h (0 Bft) NO 44 0 min 0,000 mm 0,0 UV-I 0 W/m 17,3 C 21,1 C 0,0 km/h (0 Bft) 0,00 %
18.07.2015 23:45 21,0 C 80 % 1013,9 hPa 0,0 l/m 0,0 km/h (0 Bft) N-NO 16 0 min 0,000 mm 0,0 UV-I 0 W/m 17,4 C 21,0 C 0,0 km/h (0 Bft) 0,00 %
18.07.2015 23:50 20,9 C 80 % 1014,0 hPa 0,0 l/m 0,0 km/h (0 Bft) N-NO 29 0 min 0,000 mm 0,0 UV-I 0 W/m 17,3 C 20,9 C 0,0 km/h (0 Bft) 0,00 %
18.07.2015 23:55 20,8 C 81 % 1013,7 hPa 0,0 l/m 0,0 km/h (0 Bft) N-NO 29 0 min 0,000 mm 0,0 UV-I 0 W/m 17,4 C 20,8 C 0,0 km/h (0 Bft) 0,00 %
_ Min-Zeit 06:00 13:55 17:05 - 00:05 - - - - - - 18:15 06:00 00:05 00:00
Minimum _ 18,3 C 27 % 1011,1 hPa - 0,0 km/h (0 Bft) - - - - - - 11,5 C 18,3 C 0,0 km/h (0 Bft) 0,00 %
_ Max-Zeit 14:45 23:55 06:10 22:40 17:35 - - 06:55 00:00 12:40 15:10 23:55 14:45 11:35 00:00
Maximum _ 34,3 C 81 % 1016,6 hPa 0,3 l/m 7,2 km/h
N-NW (2 Bft)
- - 5 min 0,000 mm 6,0 UV-I 972 W/m 17,4 C 34,3 C 7,9 km/h
O-SO (2 Bft)
0,00 %
Durchschnitt _ 26,7 C 48 % 1013,9 hPa #0,3 l/m 0,6 km/h (0 Bft) N-NW - #10:50 h #0,000 mm 2,9 UV-I 577 W/m 13,9 C 26,7 C 1,5 km/h (1 Bft) 0,00 %